Find Starlink 34773

NORAD ID: 65024 Int'l Des: 2025-161 Owner: SPXS Country: US Constellation: starlink operational
LEOCIRCULAR

現在のビュー

3D地球を読み込み中...

About Starlink 34773

Starlink 34773 (NORAD 65024) is a starlink constellation satellite (v2 mini) launched Jul 30, 2025 by SPXS of US. It operates in LEO, CIRCULAR orbit with a mass of 575.00 kg.

次回通過

Passes for default location (London). Set your location on the main map for personalized predictions.

高度履歴

Loading altitude history...

軌道要素

1 65024U 25161K 26235.38651457 .00016197 00000-0 48973-3 0 9997
2 65024 53.1572 236.9530 0000849 101.9396 258.1701 15.34382400 60886
Epoch: Aug 23, 2026 • Age: 41 hours

現在のステータス

高度 465.0 km
遠地点 / 近地点 N/A
速度 7.63 km/s
衛星直下点 -8.84°S, 40.91°E
打ち上げ日 Jul 30, 2025
運用期間 1 year
タイプ internet

技術仕様

分類 Payload
質量 575.00 kg
乾燥質量 530.00 kg
総質量 575.00 kg
長さ 0.30 m
直径 4.10 m
スパン 29.00 m
形状 Box + pan
製造者 SPXS
バスタイプ Starlink V2MO
フェーズステータス In Orbit
所有者/国 SPXS/US

Most Searched